Theta_e
296 289 286 285 289 291 293 292 292 293 292 292 290 289 288 288 289 291 293 294 295 293 290 292 292 289 291 293 295 298 299 296 295 294 294 297 296 296 296 295 295 294 294 296 296 296 296 297 297 298 298 298 298 299 299 299 299 300 300 301 300 301 302 302 306 308 307 307 304 305 306 306 306 306 306 308 307 308 307 306 307 306 308 307 307 307
296 288 288 290 292 294 294 294 293 292 291 290 289 288 288 288 288 292 293 295 296 293 288 289 289 290 291 294 297 299 297 296 295 294 295 295 295 295 294 293 293 294 295 295 295 295 295 295 296 296 297 297 296 296 297 297 297 298 299 299 299 300 300 300 300 302 303 305 306 306 304 305 304 306 306 307 306 307 307 306 305 305 305 305 307 306
288 287 291 293 295 295 295 294 293 292 292 292 290 288 287 287 290 292 293 295 293 293 287 287 290 291 293 294 297 297 296 295 295 295 295 295 294 294 293 293 293 293 293 293 294 294 294 294 295 295 295 296 296 296 296 296 297 297 297 298 298 299 299 299 299 300 299 301 304 305 302 304 303 303 304 304 303 304 305 303 304 304 304 303 304 304
286 288 293 296 296 294 294 294 293 293 292 289 289 286 287 289 288 284 288 291 293 293 289 289 289 290 292 295 296 296 295 295 295 295 294 295 293 292 293 293 292 292 291 291 292 292 292 293 293 294 294 295 295 295 295 295 295 296 296 296 297 297 298 298 298 299 299 299 300 300 301 302 304 301 299 301 300 302 303 304 301 301 302 302 302 301
290 294 297 296 295 294 293 293 292 290 289 288 290 288 288 288 289 288 288 291 291 292 291 288 288 286 291 292 292 293 295 295 295 295 294 294 294 294 293 292 292 291 291 291 291 291 291 291 292 292 293 294 294 294 294 294 294 295 295 295 296 296 296 297 297 298 298 299 299 299 300 300 299 298 300 299 298 298 298 300 302 302 300 300 300 300
292 296 297 295 294 293 292 291 292 291 287 288 289 292 291 291 290 290 290 288 284 284 287 289 279 278 286 289 291 292 291 292 293 292 292 292 293 292 291 291 291 292 291 291 290 290 290 290 291 291 292 292 293 293 294 295 294 294 294 294 295 295 296 296 296 297 297 297 297 297 296 296 294 294 295 296 296 297 298 299 298 299 299 299 299 298
293 296 297 296 294 292 291 290 290 292 287 287 288 292 292 291 290 289 288 287 280 280 287 289 281 276 284 289 290 291 289 290 291 290 291 291 291 291 291 291 290 290 290 290 290 290 290 290 290 290 291 291 292 292 293 294 294 294 294 294 294 294 295 296 296 296 296 296 296 295 295 294 294 293 295 295 295 296 296 298 298 298 298 299 299 297
294 293 293 293 293 290 289 289 291 293 288 285 288 291 290 290 289 288 288 287 284 284 285 289 285 280 280 285 293 290 289 288 289 289 290 290 290 290 290 290 290 290 290 289 289 290 290 290 289 289 290 290 291 292 292 293 293 293 293 293 293 294 294 294 295 295 295 294 294 294 294 294 294 294 294 295 296 296 296 296 296 297 297 297 297 298
294 290 290 290 291 288 289 291 291 293 289 286 290 291 290 290 288 288 287 284 282 283 279 282 286 281 278 283 289 289 287 286 287 288 288 289 289 289 289 289 289 289 289 289 289 289 289 289 289 289 289 290 290 291 291 291 292 292 292 292 293 293 293 293 293 294 294 294 294 293 293 293 293 294 294 294 295 295 295 295 295 295 295 296 295 296
294 292 292 292 289 288 290 289 292 293 290 291 291 291 290 289 289 288 284 284 281 281 276 281 285 279 279 284 286 287 286 285 286 287 288 288 288 288 288 288 289 288 288 288 289 288 288 289 289 289 289 289 289 290 291 291 291 291 291 291 291 291 292 293 292 292 292 293 293 292 292 292 292 293 293 293 293 294 294 293 294 294 294 294 294 295
294 294 296 294 291 292 290 291 291 294 293 292 290 288 284 285 284 283 282 282 279 274 278 284 285 284 276 282 285 284 285 288 287 286 287 287 287 287 287 287 288 288 287 287 287 287 288 288 288 288 288 288 289 289 289 290 290 290 290 290 290 291 292 292 292 292 291 291 291 291 291 291 291 291 292 291 291 292 292 292 292 293 293 293 293 292
292 292 293 292 296 293 291 290 291 291 291 289 285 282 284 283 280 281 278 278 275 272 278 281 284 286 277 278 285 287 288 290 288 286 286 286 286 287 286 287 287 287 287 287 287 287 287 287 287 288 287 288 288 288 288 288 289 290 289 289 289 290 290 291 291 291 291 291 291 290 290 290 290 290 290 290 289 290 290 291 291 292 292 292 292 292
286 288 289 293 295 294 290 289 287 286 287 286 283 283 280 274 276 274 275 272 273 274 278 282 283 282 282 283 285 286 287 289 288 288 287 286 286 286 286 286 286 286 286 286 285 286 286 286 286 286 286 287 286 286 287 287 287 288 288 288 288 288 288 289 290 290 290 290 290 290 290 290 290 290 289 289 289 289 289 290 290 290 290 291 291 291
284 285 290 290 292 293 291 286 282 285 284 284 283 280 277 273 272 266 268 272 272 276 280 282 285 280 283 284 286 285 286 288 288 288 287 287 286 286 286 286 286 285 285 285 284 284 284 285 285 285 285 285 286 286 286 286 286 286 287 287 287 287 287 288 288 289 289 289 289 289 289 289 289 289 289 289 288 289 289 289 289 289 289 289 289 290
278 279 284 290 286 291 292 292 289 283 283 285 284 286 282 275 272 269 270 271 272 274 277 280 278 275 277 281 285 286 286 287 287 287 287 286 286 286 285 285 285 285 284 284 283 284 284 284 284 284 285 285 285 285 285 285 285 285 285 285 285 286 286 287 287 287 287 287 287 288 288 288 288 288 288 288 288 288 288 288 288 288 288 288 288 289
284 282 285 292 291 292 290 292 292 286 285 284 284 286 280 280 281 277 275 273 272 276 276 276 278 278 280 285 285 285 286 286 286 286 286 285 285 285 285 285 284 284 284 284 283 283 283 283 283 284 284 284 284 284 284 284 283 283 284 284 284 284 285 285 286 286 286 286 286 286 286 286 287 287 287 287 287 288 288 287 287 287 288 288 288 289
283 279 289 292 291 289 289 292 293 291 281 283 287 281 283 285 286 280 279 278 277 277 276 276 281 282 284 285 284 284 284 284 284 284 284 284 284 284 284 284 284 284 283 283 283 282 282 282 282 283 283 283 284 285 285 284 283 283 284 284 283 284 284 285 285 286 286 286 286 286 286 285 285 285 285 286 285 286 287 287 287 287 287 288 288 288
284 282 289 288 289 291 287 290 291 292 289 284 281 282 285 289 288 283 274 275 275 273 275 279 274 276 278 273 283 283 282 283 283 283 284 284 283 283 284 284 284 284 284 284 283 282 282 282 282 283 284 284 285 286 286 285 285 285 285 284 284 284 284 284 285 285 285 285 285 285 284 284 284 284 285 285 285 284 284 285 285 286 286 286 287 288
289 280 283 287 288 290 289 290 289 288 291 287 283 288 286 278 278 280 277 271 270 270 270 273 278 278 280 280 280 280 281 282 283 283 283 283 283 283 283 283 283 283 284 284 284 283 283 283 284 284 283 284 285 286 286 287 286 285 284 285 284 284 284 283 284 284 285 285 285 285 284 284 284 284 284 284 284 283 283 283 284 284 285 285 286 286
286 281 281 286 288 289 287 285 280 282 287 288 288 285 283 282 277 275 278 273 276 272 272 269 278 274 280 281 282 282 283 283 283 283 283 284 284 284 283 283 283 283 283 283 283 283 283 283 283 283 283 283 284 284 285 286 287 286 286 285 285 285 285 285 286 286 285 285 284 284 284 284 284 283 283 283 283 283 282 283 283 283 284 284 285 285
285 285 276 284 287 288 283 283 281 283 282 284 284 282 284 282 283 282 281 278 276 272 272 272 272 276 281 285 284 284 285 285 284 284 284 284 284 284 284 284 283 283 283 283 283 283 283 284 283 283 283 284 283 284 285 286 286 287 286 286 286 285 285 285 286 286 286 286 286 285 285 285 285 285 285 284 284 283 283 283 282 281 282 283 283 283
281 282 281 281 281 282 280 286 287 288 287 284 282 280 282 281 278 276 276 283 277 278 275 275 275 276 285 288 287 285 286 285 286 285 285 285 285 284 284 284 284 284 285 285 285 285 285 284 285 284 284 284 283 283 283 285 285 285 285 285 285 284 284 284 285 285 285 285 286 285 284 284 284 284 284 283 282 282 282 283 283 283 283 281 281 280
284 282 279 278 281 281 284 290 291 291 288 288 288 285 286 282 282 276 274 275 277 277 278 275 275 276 285 284 284 284 285 286 286 286 285 285 284 284 284 285 285 284 285 285 285 284 284 283 283 283 282 282 282 282 281 282 283 284 284 283 283 283 283 283 284 284 285 284 284 284 283 283 282 282 282 282 282 281 281 282 282 283 282 282 282 282
290 278 278 278 281 283 285 288 286 287 288 286 286 283 284 281 282 281 279 279 277 277 277 275 274 281 286 286 283 280 281 282 284 285 284 283 283 284 284 284 284 284 285 285 284 283 283 282 282 282 281 281 281 281 281 282 282 283 283 283 282 282 282 282 282 283 283 282 282 281 281 281 281 281 281 281 282 282 282 281 282 282 281 281 281 281
283 282 281 276 277 279 281 283 284 285 284 279 281 283 281 282 283 282 282 282 278 280 279 275 271 280 286 285 285 284 283 285 286 286 285 284 284 283 283 283 283 283 283 282 282 282 282 281 281 280 280 280 280 280 280 280 280 280 281 281 281 281 281 281 281 281 281 280 280 281 280 280 280 280 280 280 281 281 282 281 281 282 281 281 281 281
285 281 281 275 274 272 272 272 273 279 282 284 283 283 284 284 283 282 278 280 277 281 282 278 278 284 287 285 284 285 282 284 285 284 283 284 284 283 282 282 282 281 280 279 279 280 279 280 279 279 279 279 279 279 280 279 279 279 279 279 280 280 281 281 280 280 280 280 280 280 280 281 280 281 280 280 280 281 282 282 282 282 282 281 281 281
280 283 282 282 280 278 279 278 283 283 281 278 281 283 283 283 284 285 283 280 277 279 275 278 279 279 282 284 284 284 284 283 284 283 283 282 282 282 281 281 281 280 279 279 279 279 279 279 279 280 279 279 279 279 279 279 279 279 279 279 279 279 280 281 280 280 280 280 279 279 279 279 280 280 280 280 280 280 280 281 281 281 281 281 280 280
281 279 281 279 281 282 282 281 282 284 281 282 281 281 281 281 279 278 278 275 280 276 274 281 281 277 279 282 282 280 281 282 283 281 282 281 282 282 281 281 283 279 279 278 278 278 279 278 278 278 278 278 279 279 279 279 279 279 279 279 280 280 279 281 279 279 279 279 279 278 279 280 279 279 279 280 280 280 280 280 280 279 280 280 280 280
282 278 277 281 278 282 282 281 281 281 282 281 280 279 279 280 277 273 273 279 280 276 275 279 280 277 279 281 281 280 280 281 282 283 282 282 281 280 279 279 279 279 278 279 279 279 278 278 278 278 278 278 278 278 279 279 279 280 280 280 280 280 280 280 279 280 279 279 279 279 279 279 279 280 280 280 280 281 281 281 281 281 281 281 280 280
278 276 279 281 277 280 279 279 280 279 278 278 278 278 279 279 278 278 277 279 279 277 279 278 278 278 280 281 281 281 281 279 279 279 279 278 277 277 276 276 276 276 276 277 277 278 277 278 278 277 277 277 278 278 279 279 279 279 279 280 280 280 280 279 279 279 279 279 279 279 279 279 279 280 280 280 280 280 280 280 280 280 280 281 281 281
283 277 283 277 275 272 275 279 278 277 274 274 276 277 277 277 277 277 278 278 277 277 278 278 277 277 281 279 280 280 278 278 278 277 277 276 276 276 276 277 277 276 277 277 278 278 278 277 277 277 278 277 278 278 279 279 279 278 279 279 279 279 278 278 277 278 277 278 278 278 279 279 279 279 279 279 279 279 279 279 280 280 280 280 280 280
279 273 277 276 272 270 272 273 275 275 275 273 274 276 276 276 274 276 275 277 276 274 276 276 273 275 278 276 278 276 276 276 276 275 276 276 276 276 276 275 275 275 276 277 278 277 277 277 277 277 277 277 278 278 278 278 278 278 278 278 277 277 277 277 277 277 277 277 277 277 277 278 278 278 278 278 278 278 278 278 278 278 278 279 279 279
276 273 272 271 272 273 275 273 272 270 269 268 271 275 276 276 277 277 277 278 278 278 273 271 273 277 276 278 276 275 275 275 275 275 276 277 275 276 276 275 275 276 276 276 276 277 277 277 277 277 277 277 277 278 277 277 276 276 276 275 275 275 276 275 275 275 275 275 275 276 276 276 276 276 276 276 276 276 275 275 275 275 276 276 277 277
279 278 275 276 272 272 271 271 274 270 264 267 275 277 277 275 275 274 274 276 278 278 275 276 276 274 272 276 277 275 275 275 275 276 276 277 276 276 275 275 275 275 276 276 277 277 277 277 277 277 277 277 277 277 275 275 274 274 274 274 274 273 274 273 273 273 273 273 274 274 274 274 273 274 274 273 273 273 273 273 273 273 274 274 274 274
280 280 277 279 273 271 270 271 269 265 267 277 278 277 277 276 274 274 275 276 275 276 274 275 275 274 277 278 278 277 276 275 275 275 276 276 276 277 277 276 276 276 276 276 277 277 277 277 276 276 276 276 276 274 273 273 272 272 272 272 272 272 272 272 272 271 271 271 272 272 272 272 272 271 271 271 271 270 270 270 269 270 270 270 270 270
273 274 269 273 272 271 269 269 263 264 273 276 276 276 277 277 276 276 274 276 277 277 277 276 276 277 277 275 274 275 275 276 275 276 276 276 277 277 276 277 276 276 277 277 277 277 277 276 276 276 275 275 273 272 272 271 271 271 271 271 271 271 271 270 270 269 270 270 270 270 270 269 268 268 267 267 267 266 266 266 266 266 267 267 267 267
278 274 271 268 272 267 268 266 268 271 272 274 274 275 276 275 275 274 269 273 276 275 276 275 276 276 274 274 274 275 275 273 273 274 276 277 278 277 279 277 276 277 277 277 277 277 277 276 275 274 274 272 271 271 270 270 270 270 269 269 269 269 269 268 268 268 268 268 268 268 268 267 266 265 265 265 264 264 264 264 264 264 265 264 264 265
278 275 273 271 267 270 265 265 263 263 264 269 274 277 277 277 276 275 273 268 270 269 275 275 274 271 272 274 274 275 273 271 271 272 276 277 277 278 278 278 277 277 277 277 276 275 275 274 273 273 273 271 270 270 269 269 268 268 267 267 267 267 267 266 266 267 267 266 266 266 265 265 264 263 263 263 262 262 263 263 263 262 263 262 262 262
276 278 274 273 269 271 267 266 266 264 266 270 269 272 276 276 275 273 267 265 270 269 267 272 272 272 274 274 274 273 269 265 267 273 275 276 277 277 277 276 277 277 276 275 275 274 273 273 272 272 271 270 268 268 268 267 266 266 265 266 266 265 265 265 265 265 265 265 265 264 264 263 263 262 262 261 261 261 261 261 261 262 262 262 262 262
271 271 274 272 271 271 269 268 266 268 265 267 269 274 275 275 274 269 261 259 269 270 269 273 274 274 274 274 274 273 269 262 268 273 275 276 277 277 276 276 275 275 274 273 273 273 272 272 271 270 269 267 267 267 266 265 265 263 264 264 264 263 263 264 264 264 264 264 264 263 263 262 262 261 261 260 260 260 260 261 260 260 261 260 261 260
267 267 271 270 271 272 273 269 270 269 271 271 273 275 275 276 273 263 262 265 270 272 272 275 275 275 275 274 274 270 273 275 275 276 275 275 275 276 276 275 275 274 273 273 273 274 271 271 270 269 267 267 266 265 265 264 263 262 263 263 263 262 263 264 264 263 263 263 262 262 261 261 261 260 260 260 259 260 260 260 260 260 259 259 259 259
260 262 264 268 269 269 270 269 269 272 273 274 275 276 276 274 263 264 271 271 273 274 274 275 275 275 275 275 275 275 276 276 275 275 274 275 276 276 275 273 273 272 273 273 272 270 269 268 267 266 266 266 265 264 263 262 261 262 262 261 261 261 263 263 263 262 261 261 261 260 260 260 260 260 259 259 259 258 258 259 259 259 258 259 258 258
266 264 261 267 269 269 269 267 267 263 271 277 275 275 277 268 268 273 273 274 274 275 276 275 275 276 276 275 275 276 275 274 274 275 275 274 274 274 274 273 272 272 271 269 268 268 267 266 265 265 265 264 263 263 263 260 259 260 260 260 261 262 262 262 262 261 261 260 259 259 259 259 258 258 259 258 258 257 257 258 257 258 258 257 257 257
269 260 257 263 269 262 266 264 265 270 275 273 276 269 271 277 276 274 275 272 274 275 276 276 276 277 276 277 276 275 275 275 274 274 274 274 274 273 272 272 271 270 269 268 267 266 264 264 264 263 263 263 262 262 261 259 258 259 259 259 262 262 262 261 261 260 259 259 258 258 258 258 258 258 258 258 258 257 257 257 257 257 257 257 257 257
272 268 268 266 269 266 265 267 272 275 277 276 278 277 277 278 277 275 276 277 276 276 275 275 277 277 276 276 276 276 274 274 275 274 275 274 273 273 272 271 270 269 267 266 265 264 263 263 262 262 261 262 261 260 259 259 258 258 258 260 261 261 260 260 259 258 258 257 257 258 258 258 258 257 257 257 257 257 257 257 257 256 257 257 257 257
272 275 273 271 271 273 273 274 275 275 275 275 278 279 278 278 277 276 276 276 276 278 278 277 277 277 276 275 276 273 275 275 274 273 272 272 272 271 270 269 267 266 265 264 263 262 262 261 260 259 259 260 260 260 259 258 258 257 259 261 260 260 260 259 258 257 257 257 258 258 258 257 257 257 257 257 258 257 257 257 257 256 257 257 256 256
273 274 271 270 273 269 263 272 274 276 275 276 277 277 277 277 278 277 276 276 277 277 277 278 279 278 277 276 276 276 275 274 274 273 272 271 271 270 268 267 266 265 263 262 263 261 260 259 259 259 258 257 259 259 259 257 258 259 260 259 260 260 259 257 257 257 257 257 257 257 257 257 257 257 257 257 257 257 257 257 257 256 256 256 256 256
270 276 272 273 271 270 268 274 274 276 276 277 277 275 275 277 277 277 278 278 278 278 277 278 277 276 276 274 276 275 275 274 273 273 271 271 270 268 267 265 264 263 263 263 262 259 258 258 258 257 257 258 259 258 258 258 258 258 258 258 259 258 257 257 257 257 257 257 257 257 257 257 258 257 257 257 257 256 257 257 257 256 256 256 256 256
274 274 266 269 270 273 274 275 277 277 276 276 275 275 276 277 277 277 277 277 277 276 276 276 277 277 276 277 275 274 273 272 273 272 270 269 267 267 265 264 263 263 262 262 260 259 258 258 256 256 256 257 258 258 256 256 257 258 258 259 258 257 256 257 257 257 256 256 257 256 257 257 257 257 257 257 257 257 257 257 256 257 257 259 260 260
273 272 274 270 266 267 268 273 275 267 270 275 276 277 277 277 277 277 277 276 275 275 275 275 273 272 274 274 274 273 272 271 270 269 268 268 267 265 264 263 262 261 261 260 259 258 257 257 256 255 256 257 258 256 256 257 257 257 258 258 257 257 256 256 256 256 256 256 256 256 257 257 257 256 257 256 256 256 257 260 264 263 260 260 264 267
274 275 274 271 271 270 275 277 277 277 276 277 278 278 277 277 277 276 277 277 277 277 276 275 273 270 271 270 270 272 271 271 268 268 266 265 264 263 263 261 260 260 260 259 257 256 256 256 256 255 255 256 256 256 256 257 257 257 257 258 258 257 256 256 256 256 256 256 256 257 257 256 256 256 256 256 256 256 256 256 258 264 266 266 266 267
Wind_Speed
4 5 6 7 8 10 11 13 14 13 8 6 4 5 7 6 5 4 5 5 2 3 4 8 7 3 6 8 10 16 10 6 5 4 7 9 10 10 11 11 11 13 11 6 10 12 13 13 12 11 11 11 13 14 15 15 14 14 12 12 12 10 11 10 9 7 6 5 4 3 5 2 2 3 3 3 3 2 1 2 2 3 4 4 4 5
3 5 6 8 11 13 15 13 8 6 4 7 6 6 7 3 7 4 4 3 5 1 3 3 4 6 7 9 16 16 9 12 7 5 11 11 11 10 11 11 11 8 6 9 13 14 13 12 12 11 12 13 16 15 14 14 13 13 13 12 11 11 11 10 8 7 7 5 2 3 3 1 2 4 2 1 1 1 0 1 2 3 3 4 5 5
4 8 8 13 13 10 7 5 5 6 7 6 6 3 3 6 4 4 6 3 1 1 5 3 5 7 9 10 19 11 8 7 7 10 7 13 11 10 10 10 10 11 11 12 11 11 12 12 12 11 11 12 11 11 13 12 13 13 11 11 9 10 10 10 10 8 6 5 5 5 4 6 3 3 3 3 2 3 3 2 1 1 2 3 4 4
4 4 14 14 6 6 7 6 6 7 5 5 6 4 8 4 2 6 5 3 2 1 3 3 7 8 8 12 14 8 7 9 12 16 14 10 13 12 10 9 10 10 11 13 11 11 10 11 11 12 12 11 11 12 12 12 12 10 11 11 11 10 9 9 10 9 7 6 4 3 4 4 5 2 3 4 5 5 4 3 2 1 1 2 3 3
12 9 11 9 5 7 9 8 6 5 7 3 4 4 4 5 4 6 5 4 3 5 0 2 3 5 8 10 5 10 10 12 9 15 13 11 10 10 10 12 10 11 9 10 11 11 11 12 12 11 9 9 11 11 11 11 11 9 11 11 11 10 10 9 11 10 8 9 9 8 9 8 7 7 8 8 8 7 4 3 3 1 1 2 3 3
7 6 2 3 4 4 5 7 8 5 5 3 3 7 7 5 5 3 2 3 6 5 2 1 6 3 6 5 9 7 5 9 5 12 10 9 8 8 12 10 8 9 7 9 10 9 8 9 9 11 11 12 11 12 10 9 10 11 11 12 12 11 11 11 11 11 8 8 7 7 7 7 6 6 7 6 4 6 7 6 3 2 0 1 1 2
6 5 6 9 8 6 5 5 4 5 5 0 6 2 5 5 3 1 1 3 1 1 2 3 0 8 2 3 5 5 9 8 6 8 7 7 7 8 8 7 7 8 8 8 8 8 10 8 9 10 11 10 12 10 9 10 11 12 11 11 11 11 10 11 11 12 10 9 7 6 5 5 6 6 4 2 3 4 6 5 4 2 2 0 2 2
4 3 4 2 4 4 3 6 5 7 4 4 2 3 4 3 1 1 0 2 5 1 4 2 4 6 4 5 13 8 10 7 7 6 6 7 7 8 7 6 6 6 7 8 8 8 7 8 8 9 9 9 9 7 8 10 10 12 12 12 12 10 10 10 10 11 10 8 8 9 7 7 7 6 4 5 5 4 5 7 7 5 3 2 2 3
3 1 3 2 1 3 6 7 2 6 6 4 2 5 2 3 2 1 1 3 2 1 7 5 3 1 5 7 2 13 10 4 6 5 5 6 6 7 7 6 6 5 5 6 8 8 7 8 8 7 9 7 9 9 9 8 8 9 10 11 11 12 11 11 13 12 12 10 8 8 8 8 7 7 7 6 7 7 7 7 7 7 6 4 3 3
2 2 6 6 5 6 6 3 2 8 2 3 3 2 2 1 1 1 2 1 2 0 5 5 5 4 7 5 2 1 7 7 6 7 6 5 5 5 6 5 5 4 5 5 7 7 8 7 6 5 5 9 8 7 7 8 8 9 9 10 12 12 10 11 13 12 12 11 9 10 10 10 9 8 8 7 9 8 8 8 8 7 8 8 6 4
2 2 5 3 5 5 2 0 1 1 2 3 3 1 4 4 2 2 2 2 2 3 6 9 7 7 5 3 3 9 7 8 9 5 5 5 5 4 4 4 4 4 4 5 6 6 7 6 6 5 8 7 8 7 8 8 7 7 8 8 11 11 10 12 12 11 11 10 10 10 10 10 10 10 9 9 10 9 9 9 9 8 8 7 7 7
1 1 0 3 3 3 3 2 3 1 2 4 1 2 5 5 3 2 2 3 1 6 7 5 7 9 6 4 2 4 3 13 15 16 12 9 5 5 4 4 4 4 4 5 6 7 7 9 10 9 10 10 10 11 11 9 9 9 9 11 12 13 12 10 11 11 11 9 9 9 9 10 10 9 9 10 10 10 9 9 9 8 9 9 8 8
2 6 4 1 3 8 1 1 3 4 2 3 4 3 1 4 3 2 2 1 5 6 2 1 4 1 9 4 3 5 5 6 4 9 12 11 8 5 4 4 4 4 5 6 6 7 7 7 7 8 7 8 9 9 9 10 9 9 10 11 11 11 10 10 8 9 8 9 9 9 9 8 8 9 9 9 10 8 9 9 9 9 9 9 9 9
7 2 2 4 5 2 6 6 1 1 1 5 4 4 4 1 1 2 4 2 3 5 5 1 1 3 3 1 3 4 4 6 10 9 8 8 8 7 5 4 4 4 5 6 6 5 5 5 5 5 5 5 6 7 8 8 8 8 8 8 8 8 7 7 7 7 8 8 8 8 8 8 8 8 9 9 9 9 8 8 8 8 8 8 8 9
2 4 4 5 3 2 7 9 10 6 7 9 4 9 9 6 3 3 3 5 5 6 3 3 2 5 3 1 3 3 3 7 7 8 6 6 5 5 4 4 4 5 4 4 5 5 4 5 4 4 4 4 5 6 8 8 9 7 7 5 6 7 8 7 6 5 6 6 7 7 7 7 7 7 8 8 7 8 8 8 8 8 7 8 8 8
7 7 4 4 1 5 8 3 4 4 2 3 3 4 4 5 4 5 5 2 1 2 5 2 4 1 2 1 3 3 5 7 6 6 6 6 4 4 5 4 4 3 4 4 4 4 4 4 4 4 5 4 4 5 6 6 5 4 4 5 6 6 5 5 5 5 5 5 5 6 8 7 7 6 6 7 7 7 6 6 6 7 7 7 7 7
0 4 1 1 2 5 4 1 2 3 2 2 5 4 5 3 3 0 4 1 2 0 8 3 3 2 0 1 2 3 6 4 4 4 4 5 4 4 4 4 3 4 4 4 4 4 4 4 3 3 2 3 4 5 5 4 3 3 4 5 6 6 5 6 5 5 5 6 8 8 8 7 8 8 8 7 7 7 7 6 7 7 7 7 8 8
5 6 1 3 1 1 1 1 0 1 3 5 2 6 1 1 3 2 3 1 2 6 7 1 4 2 3 5 4 1 5 5 4 5 4 4 4 4 4 3 4 3 4 3 3 3 3 3 3 2 2 3 3 3 3 3 3 4 4 5 6 7 8 7 7 8 8 8 8 7 7 7 7 7 7 7 7 6 6 6 6 6 8 8 8 7
3 5 3 3 3 2 2 1 4 1 2 4 2 1 0 3 2 2 3 3 3 5 4 3 6 5 9 6 4 7 9 8 7 4 5 4 4 4 4 4 3 3 3 4 4 3 3 2 2 2 3 2 2 2 2 2 3 4 4 5 4 5 4 4 5 5 5 4 4 4 5 5 6 6 5 5 5 6 6 7 6 6 6 6 7 8
1 3 5 1 2 1 1 3 4 3 3 1 2 1 0 3 3 1 5 4 3 6 4 4 6 7 3 4 14 13 10 10 9 6 6 7 6 6 5 4 4 4 3 3 3 2 2 1 1 1 2 2 2 2 2 1 2 3 2 3 3 3 3 5 5 5 5 4 4 5 4 5 4 5 4 5 5 6 6 5 6 7 7 8 7 7
2 2 5 1 2 1 1 1 6 7 4 1 1 2 0 1 3 1 2 3 4 3 5 6 8 3 2 2 12 14 14 12 10 9 7 7 7 6 6 6 4 4 3 3 3 2 2 1 1 1 1 1 2 1 2 2 2 2 1 1 1 2 3 3 3 3 4 4 5 5 5 5 4 4 3 3 2 2 3 4 4 4 4 5 7 6
1 0 7 2 2 3 4 2 4 4 5 3 3 4 5 2 3 5 10 2 1 5 5 6 11 3 1 2 7 11 9 10 9 10 8 8 7 7 5 5 5 4 4 3 2 2 1 1 2 2 2 1 1 3 2 3 3 3 3 3 2 2 3 2 3 3 3 4 4 4 5 5 4 4 4 4 4 4 3 3 3 3 3 3 5 3
3 1 2 5 6 7 5 4 1 1 2 3 4 4 4 2 2 1 6 4 2 3 2 2 0 4 0 2 2 5 8 8 8 8 9 6 6 6 6 5 4 4 3 4 3 3 3 3 3 3 2 3 3 4 3 4 3 3 4 3 3 3 4 3 3 3 3 3 3 4 4 4 4 4 4 3 4 4 5 5 4 4 3 5 4 3
8 2 1 4 4 3 3 5 5 4 4 1 2 1 1 4 5 6 4 2 2 3 5 2 2 2 1 0 1 4 2 3 4 5 6 6 6 6 7 6 6 5 4 4 3 2 3 3 1 2 3 3 3 3 3 4 3 3 3 3 3 3 4 4 4 3 3 3 3 4 4 4 5 4 5 4 5 5 6 5 5 5 4 5 4 6
2 3 6 1 3 6 6 2 4 3 6 2 2 2 1 1 2 2 2 0 3 6 6 3 8 5 1 1 1 3 3 4 4 2 7 8 6 6 6 5 4 4 3 3 3 4 2 2 3 3 3 3 2 2 2 2 3 2 3 3 3 4 4 4 3 2 4 3 4 5 4 5 4 4 4 5 5 5 5 5 6 5 5 6 6 6
2 3 5 4 8 10 10 8 4 2 2 1 2 1 2 4 3 2 1 3 7 3 11 8 10 2 1 3 4 2 1 4 5 3 3 5 6 7 5 4 5 4 4 4 4 2 4 4 4 3 3 3 3 3 2 3 3 3 3 4 4 4 4 5 4 4 4 4 4 5 6 6 6 7 7 7 6 7 8 9 9 10 9 7 10 9
2 0 4 8 9 11 10 1 1 5 0 0 4 3 6 3 5 5 3 5 7 3 5 7 5 6 12 12 4 4 8 8 7 6 7 5 4 5 5 5 4 5 5 6 5 6 4 4 5 6 5 5 5 5 5 4 4 4 4 5 5 4 4 5 4 4 4 5 4 4 5 6 7 7 7 7 7 7 7 8 8 8 9 8 8 10
1 1 5 4 6 8 4 3 2 2 3 5 6 8 4 5 3 4 7 5 2 1 12 6 6 5 10 11 7 3 2 4 4 4 6 5 6 7 6 4 5 5 5 4 5 5 6 6 5 6 6 5 5 6 5 3 2 4 5 6 7 7 5 5 4 4 4 4 4 4 6 6 6 6 6 6 6 7 7 7 7 8 8 7 8 9
3 3 3 3 3 7 4 3 3 2 1 2 5 5 9 9 5 5 2 5 5 7 13 10 11 9 11 12 7 3 4 4 6 8 6 7 5 4 4 5 4 4 3 2 3 2 3 4 5 5 5 4 4 6 7 5 5 5 6 5 5 5 6 5 5 6 6 6 6 7 6 6 6 6 7 8 8 10 11 11 11 10 10 9 9 7
3 3 2 1 3 4 3 2 2 1 1 2 4 8 11 11 11 2 4 8 10 9 9 10 9 13 12 9 2 5 5 3 2 3 5 5 4 4 4 4 4 3 4 4 4 3 2 1 2 2 3 5 5 4 4 4 4 4 4 4 5 5 6 6 7 6 7 7 7 7 7 8 8 9 9 10 10 10 10 10 10 10 11 12 12 12
4 5 5 1 1 3 1 3 2 3 2 4 7 11 13 12 6 6 9 8 5 7 10 11 10 15 10 1 2 1 3 4 6 5 5 5 5 5 4 2 1 2 3 3 1 2 3 4 4 5 5 4 4 3 2 2 2 3 4 4 5 7 6 5 6 7 6 6 6 7 8 9 9 10 11 11 10 11 11 11 11 11 11 12 12 13
3 4 2 0 2 4 1 4 2 2 5 5 12 19 19 12 11 13 11 8 10 13 13 10 10 13 9 1 2 3 4 5 5 5 4 3 3 4 4 3 3 3 4 3 2 3 4 4 4 5 4 3 2 1 2 3 4 5 5 5 6 6 6 7 8 9 9 9 10 10 10 9 9 10 10 10 10 11 10 10 11 11 11 11 12 12
3 4 2 1 1 4 1 5 2 1 5 10 16 21 14 12 13 8 8 9 12 9 7 9 11 7 6 3 4 1 4 4 4 3 1 0 3 4 4 4 5 5 4 4 4 4 3 4 4 4 3 3 4 5 5 5 6 6 5 6 5 6 7 7 7 7 8 8 8 9 9 9 10 11 10 9 9 9 11 11 12 13 13 13 12 12
3 5 4 4 4 3 2 4 3 1 6 16 3 4 7 6 6 9 11 11 11 8 6 6 8 4 2 5 7 5 6 6 4 2 3 3 3 4 4 4 5 4 4 4 4 4 4 4 4 3 4 4 4 5 5 6 5 4 4 5 6 7 6 6 7 6 7 7 7 8 9 10 9 9 9 9 10 11 11 12 12 12 11 12 13 13
4 2 3 1 3 4 4 5 4 11 16 9 1 2 3 5 4 8 8 9 7 6 5 4 1 3 8 8 9 8 7 3 4 3 2 4 4 5 6 4 2 4 5 4 4 4 4 4 4 4 4 5 5 4 6 7 7 6 7 7 8 6 6 6 7 7 7 8 8 7 7 8 9 9 10 10 10 11 11 12 12 13 11 11 12 11
5 6 3 2 4 2 3 5 5 13 7 4 8 0 1 2 4 2 8 9 8 8 8 5 6 8 8 5 3 4 4 1 0 1 2 3 3 5 4 3 4 4 4 4 5 4 5 4 4 4 4 3 6 5 6 5 5 6 6 6 6 7 6 6 7 8 7 7 7 7 8 9 9 9 10 11 11 11 12 12 10 12 11 11 12 12
9 3 5 5 3 7 5 8 14 7 13 16 14 4 4 7 5 6 8 9 6 4 6 5 8 6 5 4 4 3 2 2 2 4 1 2 3 3 4 3 6 4 5 4 5 5 5 4 5 5 4 5 6 5 5 4 5 5 6 7 7 6 7 7 7 7 7 7 8 8 8 9 9 10 10 10 12 12 12 11 13 11 8 12 11 13
6 11 4 7 5 6 4 5 4 3 8 13 2 0 1 1 1 2 4 7 4 2 3 8 6 5 6 4 4 3 3 2 5 3 2 1 2 4 1 3 4 5 5 5 4 5 4 5 6 5 6 6 6 5 3 4 5 6 6 6 6 6 7 6 7 7 7 8 8 8 8 9 8 10 10 11 11 12 12 11 10 10 10 11 13 13
1 4 4 8 2 1 3 7 8 8 9 2 1 3 1 3 5 2 2 6 4 1 3 4 5 5 8 8 5 4 3 2 6 5 6 3 2 1 3 4 5 5 5 5 7 6 5 5 5 5 5 5 5 5 4 5 5 6 7 6 6 6 6 6 6 7 8 9 9 8 8 8 9 9 10 11 11 11 12 12 11 11 10 9 11 11
7 3 5 5 8 7 6 7 10 5 6 3 4 2 3 2 4 5 2 6 0 3 3 6 8 9 7 5 6 5 6 6 5 7 4 7 5 4 5 7 5 5 5 6 5 6 6 4 5 5 6 5 4 3 5 4 5 4 6 6 5 6 6 6 7 8 8 8 8 8 8 8 9 9 10 12 12 11 10 10 9 11 10 11 10 11
4 0 5 12 10 12 15 8 4 7 3 3 6 4 4 1 3 2 10 7 4 5 4 7 10 10 8 7 6 6 7 7 7 6 4 4 3 2 1 3 4 5 7 6 6 5 5 5 6 5 4 3 3 4 4 4 4 5 5 6 6 5 6 7 7 7 7 8 8 8 9 8 8 11 11 10 11 11 11 10 11 12 10 12 9 11
1 3 4 1 8 9 8 10 11 6 5 5 6 8 4 2 5 8 7 4 6 5 6 9 9 8 7 8 7 7 7 8 5 2 3 5 3 4 5 5 5 5 5 6 6 5 5 5 5 4 3 3 3 2 3 3 4 5 6 4 5 5 7 7 7 7 7 8 9 9 9 9 9 9 10 10 10 11 12 10 11 11 12 11 11 14
8 7 7 8 3 1 3 9 6 10 2 8 5 2 2 4 6 6 3 2 5 6 9 8 8 8 9 8 9 9 6 4 4 6 4 3 3 5 6 4 4 5 5 4 5 4 5 4 4 2 2 2 2 3 3 4 4 4 4 5 7 7 7 7 7 8 8 9 9 9 10 10 10 10 9 10 10 11 13 11 11 10 10 11 12 12
3 5 3 4 6 6 8 10 8 5 4 4 8 6 4 10 6 5 5 4 4 6 7 8 7 9 9 8 7 6 6 7 4 4 3 1 3 4 4 4 4 5 5 5 5 4 4 4 2 1 1 1 1 2 3 4 4 4 5 8 7 7 7 7 7 7 9 9 9 10 10 9 10 10 9 10 11 11 12 12 11 11 10 11 11 12
6 8 8 7 4 8 8 5 4 6 7 7 9 7 7 6 5 7 5 6 6 6 5 5 10 8 8 8 8 8 7 7 7 6 5 5 6 6 5 4 4 5 5 4 4 3 3 3 1 1 1 1 2 2 2 3 4 5 7 7 5 7 8 7 8 8 9 10 10 10 10 10 9 10 9 10 10 11 11 12 11 12 10 10 11 10
4 8 2 2 5 1 2 3 1 1 2 3 7 9 9 8 6 5 6 5 5 8 8 9 8 9 8 8 8 6 8 7 6 4 4 4 5 4 4 5 5 5 5 4 2 2 2 2 2 2 3 3 2 2 2 3 4 6 8 7 6 7 7 8 9 10 10 10 10 10 11 12 11 9 10 11 9 9 10 11 11 11 11 10 10 10
6 5 3 6 1 2 6 3 6 8 6 7 9 6 5 5 7 6 5 7 7 7 7 8 10 10 10 8 10 10 9 6 6 6 5 5 5 5 4 4 3 3 3 3 2 2 3 4 5 5 4 4 2 2 2 3 4 5 6 7 7 7 7 8 9 11 10 11 11 10 9 10 10 11 10 9 9 9 9 9 9 10 11 11 11 11
7 6 6 9 6 6 7 4 7 10 10 7 6 5 6 9 9 7 8 7 7 7 7 9 8 7 6 8 10 9 8 6 7 6 5 6 6 5 4 4 5 4 3 3 2 3 2 2 4 4 4 4 4 3 3 4 4 5 5 6 7 7 7 8 9 10 11 12 10 10 9 10 12 13 11 10 9 10 10 9 9 9 11 11 12 12
5 2 4 4 5 6 5 9 15 11 8 11 6 5 7 8 8 7 7 8 8 7 7 7 8 10 11 12 8 7 6 7 8 7 6 5 4 4 4 4 3 3 2 1 1 2 2 2 3 4 4 5 3 4 4 4 5 4 6 7 6 6 7 9 9 10 11 10 9 9 9 9 10 10 11 11 10 9 10 11 10 10 12 12 10 10
2 12 6 4 1 3 8 12 6 3 8 9 9 11 11 10 8 9 9 8 7 8 7 7 6 3 5 5 7 8 9 7 5 5 6 5 5 5 5 4 3 2 1 1 1 1 1 2 2 4 4 5 4 4 4 6 6 5 6 6 5 6 8 9 10 10 10 9 9 9 9 9 10 10 10 10 10 11 11 14 22 16 13 13 20 27
13 15 7 7 9 12 13 13 7 9 9 10 10 8 7 6 7 9 10 11 10 10 9 8 7 3 5 5 4 8 7 7 7 5 5 4 4 4 4 4 2 1 0 0 1 1 1 2 2 4 4 5 4 4 5 7 7 6 6 6 6 6 7 8 9 9 9 9 9 10 11 10 11 10 10 10 10 10 11 13 16 21 22 22 24 25
Wind_Direction
134 147 168 193 208 211 218 212 216 227 220 239 257 266 254 252 279 272 263 264 305 329 236 257 275 292 285 285 288 277 302 319 307 352 75 100 90 85 77 73 69 61 57 44 47 44 41 36 32 30 28 27 34 31 27 32 29 30 29 28 22 13 21 20 8 19 33 30 12 31 51 55 3 45 18 26 12 39 45 136 144 168 186 184 187 191
113 192 224 209 206 211 221 227 235 258 242 228 238 246 265 229 255 238 270 270 329 239 285 312 360 312 293 299 288 289 318 312 334 93 108 95 89 81 79 76 66 72 66 47 44 38 40 35 30 30 31 25 32 24 26 30 28 27 28 30 23 16 18 21 14 9 33 15 46 87 24 49 27 21 22 349 336 312 49 121 149 178 182 183 195 200
193 209 229 224 219 225 245 247 236 234 254 266 250 233 280 259 254 280 275 300 334 36 270 305 322 288 284 278 275 291 318 23 34 93 97 105 94 85 80 78 76 64 55 49 47 40 38 37 33 33 33 34 33 28 28 23 27 24 25 24 24 23 21 14 14 18 9 4 26 66 43 45 40 47 58 54 357 2 4 355 6 145 157 179 207 211
220 274 244 239 220 227 259 256 256 261 260 249 277 284 263 250 343 300 295 348 327 169 266 287 297 289 282 270 275 328 58 73 70 78 74 67 83 84 78 79 79 73 62 56 46 43 38 41 41 38 34 30 31 31 28 24 24 25 22 17 19 22 23 19 11 11 9 28 33 54 86 62 78 73 8 23 18 14 14 334 5 34 134 183 209 218
205 204 219 236 222 202 234 252 255 256 269 271 204 233 251 277 234 194 262 326 307 319 111 14 322 307 255 262 315 59 86 84 71 84 79 74 80 89 88 73 65 74 71 67 57 46 38 38 38 39 36 32 36 32 31 26 26 27 23 17 15 17 19 18 15 10 7 19 26 21 24 31 25 16 18 17 357 352 342 331 325 284 162 178 208 221
253 257 228 202 220 197 199 246 246 204 263 293 230 200 222 217 257 270 324 43 14 328 327 67 355 301 266 253 260 124 69 71 48 77 77 79 83 80 76 78 75 69 59 63 62 56 51 49 42 38 36 36 33 29 23 26 30 29 26 22 19 19 17 15 16 13 13 20 32 34 41 42 43 35 26 20 349 341 335 299 308 337 313 168 221 235
211 238 221 236 249 240 196 221 233 141 205 30 271 198 212 212 197 145 6 55 352 183 270 85 184 271 305 277 269 113 95 81 63 65 78 78 74 75 78 77 77 80 72 60 54 48 49 42 48 43 41 38 38 29 21 24 27 30 31 27 26 23 17 13 16 19 17 15 15 33 55 70 73 59 20 348 6 13 339 318 300 295 320 244 203 258
174 196 134 95 151 169 185 247 244 166 151 237 244 117 102 110 116 174 136 168 238 259 303 324 170 248 281 273 246 103 99 103 85 79 77 74 77 69 72 72 71 71 78 81 67 49 42 41 40 41 40 40 39 32 33 32 27 27 28 31 29 27 22 17 17 23 25 23 11 13 20 34 39 46 28 5 352 7 10 15 355 320 295 286 229 230
168 223 150 138 123 136 203 214 223 143 146 215 220 121 115 129 168 158 205 220 230 337 293 266 198 289 252 254 64 129 107 131 117 115 104 103 94 93 82 66 56 51 63 75 79 71 56 45 38 35 38 35 38 35 35 33 31 30 28 32 35 35 29 21 22 24 22 24 16 16 13 19 16 20 20 5 16 15 7 19 2 4 329 310 293 259
350 178 212 159 140 212 225 267 152 144 170 263 184 100 84 89 121 179 160 116 317 208 262 235 195 214 283 269 53 153 122 162 158 137 129 109 99 94 96 91 82 63 43 41 60 67 64 53 43 34 44 41 37 33 35 34 31 30 28 29 33 33 31 26 27 25 25 23 20 23 18 20 14 14 13 22 17 12 9 11 6 1 1 346 325 305
219 275 179 122 196 210 171 172 126 148 174 114 72 66 1 22 342 34 88 113 55 283 245 217 204 177 279 283 165 151 209 164 135 124 117 108 100 84 69 75 70 74 71 61 52 46 54 56 53 32 43 37 34 33 36 34 33 32 30 26 35 31 30 28 26 25 26 24 25 26 21 23 20 15 21 23 20 13 12 9 359 360 346 355 352 333
327 352 143 251 176 96 108 112 12 100 126 117 87 115 27 333 13 38 345 42 130 265 261 240 204 186 190 284 312 300 280 157 153 151 147 135 123 116 108 94 83 64 61 63 56 44 38 39 35 31 31 27 24 26 25 23 24 26 25 26 30 25 22 22 23 23 23 23 25 28 27 28 25 25 27 27 23 14 10 6 0 354 358 356 350 2
260 212 235 322 296 153 130 128 304 23 13 81 74 54 120 269 34 315 36 310 204 213 243 317 138 88 245 232 351 356 30 103 102 132 138 134 134 123 109 99 81 74 65 56 52 46 40 43 36 32 27 27 26 23 21 22 20 21 24 25 31 25 15 15 18 25 20 24 23 23 26 28 26 30 33 33 31 19 16 8 5 4 2 354 359 353
276 296 172 253 357 203 126 148 256 341 273 115 157 151 113 171 183 238 260 216 309 296 260 202 20 232 235 32 30 37 27 79 101 107 115 129 131 131 122 100 76 61 61 61 59 53 51 47 45 39 35 34 30 26 25 25 28 24 25 20 32 27 19 17 21 21 21 23 22 23 28 26 23 27 30 31 31 22 22 16 11 7 1 357 354 346
311 337 281 145 233 185 163 197 183 175 163 201 140 155 187 148 153 235 206 221 222 221 281 275 35 232 175 246 23 50 37 79 90 104 109 107 114 118 115 93 82 71 62 63 62 61 57 51 49 45 36 35 32 29 27 26 22 20 19 17 26 28 21 21 19 18 26 23 25 28 30 31 26 26 30 31 30 27 22 14 12 7 2 2 349 347
219 223 256 209 257 150 179 222 134 91 77 229 170 100 81 235 152 195 204 159 233 319 306 286 196 192 118 72 84 63 69 73 84 93 106 105 105 110 93 100 104 96 89 83 82 70 58 56 48 41 34 23 24 28 34 33 26 20 7 16 26 28 14 14 16 19 22 19 23 32 34 30 31 31 30 29 25 25 28 19 18 6 4 357 349 347
93 269 227 133 68 167 189 182 209 133 211 247 106 200 211 187 111 346 341 214 100 23 250 158 298 73 127 99 84 90 88 86 101 113 116 127 120 106 126 134 128 132 120 118 116 107 85 56 49 56 43 26 24 29 30 35 25 30 25 29 27 22 21 19 13 14 18 19 25 23 23 23 25 25 28 27 22 18 13 17 13 12 0 356 1 351
219 254 273 112 228 273 181 160 318 1 149 85 135 241 249 84 119 127 206 314 231 231 265 194 207 266 136 279 139 179 124 169 157 160 147 137 132 137 163 165 161 154 148 128 107 96 87 79 56 31 30 32 31 25 17 21 24 27 38 32 30 21 17 4 8 10 12 12 15 10 11 13 21 21 18 18 15 8 13 11 12 3 5 1 350 351
113 319 284 239 171 290 1 69 333 339 21 160 187 249 120 276 314 312 93 265 266 244 273 284 244 232 199 206 148 204 177 183 179 171 148 152 176 179 177 173 168 144 111 98 85 69 53 51 34 31 28 5 18 17 16 7 26 26 30 33 41 26 7 359 0 4 5 17 9 0 358 6 7 12 14 7 6 4 7 4 0 2 352 349 351 349
18 221 294 315 147 206 35 83 234 268 333 29 51 19 297 103 163 211 196 187 166 259 244 288 250 257 215 195 180 180 186 173 172 167 185 188 187 185 176 173 165 145 132 129 128 138 141 118 42 39 26 14 1 359 346 8 8 22 28 35 24 13 4 0 4 2 1 353 2 355 0 2 9 2 1 354 354 357 354 344 346 345 350 347 343 344
250 133 242 297 324 76 251 156 201 180 184 13 123 268 45 252 225 142 307 184 180 209 219 256 268 271 254 202 163 179 179 174 163 175 188 197 194 187 181 169 164 155 149 154 159 156 131 106 13 337 316 328 329 324 336 349 339 324 353 350 351 15 331 343 333 342 339 344 343 352 350 342 347 343 340 331 316 301 306 306 316 317 313 326 328 330
104 288 214 303 356 224 232 222 174 134 124 140 155 201 174 147 271 251 257 108 136 219 242 238 254 273 269 11 183 163 162 153 175 171 183 196 178 170 166 164 153 150 161 161 170 154 179 224 250 268 296 316 346 314 318 314 326 323 304 282 283 300 298 279 302 304 313 323 320 323 315 312 312 312 322 329 328 312 306 286 276 266 280 282 278 280
148 149 104 237 212 206 214 199 110 138 136 179 133 231 149 132 127 124 245 253 29 256 94 217 42 267 329 303 74 137 143 169 175 167 188 182 163 163 170 160 165 169 166 180 180 188 208 220 230 247 263 280 280 276 279 284 278 264 270 278 273 258 271 259 256 271 270 281 295 290 291 294 292 294 292 296 295 289 290 286 282 268 256 275 282 262
69 97 4 287 290 286 317 329 19 62 132 98 359 20 166 209 191 194 210 185 212 308 323 312 260 215 285 301 49 91 103 146 158 172 159 150 164 179 171 165 174 176 191 199 194 210 222 227 294 308 295 293 294 282 269 262 270 275 271 262 269 262 266 278 269 271 285 288 283 279 282 282 285 291 284 276 270 263 265 263 260 263 259 267 271 288
106 277 128 64 311 321 321 2 9 336 49 93 157 264 166 120 101 185 116 183 203 202 237 226 249 250 55 116 114 122 139 183 191 167 156 157 183 182 178 181 183 191 205 207 209 221 245 273 264 254 243 241 247 259 269 262 259 265 274 288 284 280 277 278 279 284 289 292 307 310 308 302 289 280 281 279 281 279 274 261 256 249 250 258 261 261
154 186 126 172 224 249 256 232 227 146 162 199 195 242 244 162 177 118 204 212 237 207 213 221 248 226 197 180 216 212 218 249 261 225 204 176 174 180 183 183 199 184 211 218 218 200 208 216 220 232 236 227 224 220 244 275 275 277 282 281 270 279 297 299 307 307 310 306 315 312 318 316 321 315 309 305 304 304 306 310 312 313 311 307 307 300
171 199 170 203 214 237 245 111 142 97 29 157 265 210 258 223 205 216 200 237 238 280 286 243 231 273 279 270 228 212 194 215 227 208 196 202 197 188 181 186 194 192 192 188 182 194 190 194 204 205 209 206 212 217 222 226 247 254 259 274 279 265 260 270 283 286 296 294 302 305 307 310 304 300 300 301 299 303 304 300 295 294 290 294 295 300
77 234 243 206 230 239 245 198 199 107 204 240 264 274 253 231 207 178 199 215 130 68 261 247 223 200 250 268 264 179 219 260 268 208 193 184 179 177 187 188 186 185 198 182 189 182 191 208 215 213 216 218 225 229 235 272 330 332 327 318 314 315 310 298 301 298 297 300 308 305 306 306 303 300 293 291 293 292 291 287 281 274 272 275 280 281
140 209 266 160 266 264 282 331 56 76 191 204 245 261 267 266 247 217 209 210 235 230 256 270 281 274 268 260 269 243 217 242 232 233 196 171 158 155 140 162 182 214 251 234 241 244 245 256 253 254 259 279 335 1 10 15 4 2 353 340 333 333 342 337 351 349 347 344 338 323 316 314 310 302 302 303 306 307 306 305 303 302 300 296 288 275
83 277 227 116 220 275 315 44 14 75 268 267 249 260 264 265 265 219 217 228 220 241 253 260 268 265 258 268 302 273 261 185 167 122 101 105 134 137 132 163 182 190 170 167 185 187 163 104 49 40 49 62 79 61 34 19 7 351 342 337 349 10 359 9 360 360 349 341 330 322 321 319 315 313 312 312 309 306 303 300 300 300 301 302 303 303
111 268 94 354 91 294 343 73 49 64 340 298 286 267 260 261 280 258 249 248 257 267 260 257 260 267 266 246 223 169 101 88 78 87 118 137 130 132 138 172 208 206 197 188 169 85 100 115 102 91 84 82 74 67 33 16 347 349 360 2 10 4 352 359 350 348 338 331 325 329 330 326 318 316 314 312 313 311 309 306 306 307 306 306 304 302
85 245 56 34 68 300 343 89 14 342 325 291 282 274 263 262 268 256 250 234 231 236 243 255 256 256 275 8 68 77 79 95 115 110 110 137 158 151 169 217 219 231 228 218 155 132 116 106 112 100 103 102 98 80 48 25 18 32 16 7 6 351 348 359 356 350 343 337 334 327 322 315 314 314 313 317 313 313 314 318 318 316 315 313 312 310
159 140 130 127 247 245 290 123 159 42 7 321 261 253 262 246 230 248 248 231 223 222 222 223 238 239 234 198 154 209 122 133 136 147 138 98 209 198 212 220 221 221 214 181 161 154 140 123 127 122 114 83 37 35 32 45 45 29 8 6 348 353 358 357 352 338 327 321 320 317 315 318 319 317 315 318 324 326 325 322 319 317 317 315 313 311
119 148 177 169 175 215 170 135 94 129 259 250 267 131 186 217 199 211 235 237 237 197 213 195 232 232 206 192 192 194 180 194 169 216 168 178 243 267 269 249 234 215 185 175 162 143 135 123 112 103 92 80 59 59 63 57 44 12 2 354 354 358 348 340 326 320 310 312 314 316 319 317 316 317 323 329 327 323 321 321 318 319 319 317 316 312
173 186 198 183 148 208 118 106 203 215 239 258 12 224 167 192 186 220 241 242 244 242 245 258 254 192 200 197 193 191 188 188 169 169 256 224 197 221 229 242 207 177 171 161 132 131 130 126 108 81 55 49 59 50 40 32 18 360 358 357 345 336 330 318 313 312 313 313 315 317 317 322 329 329 327 328 328 326 322 319 317 315 316 314 308 308
188 168 167 237 141 19 125 195 232 239 255 342 282 195 359 82 235 289 280 262 245 228 220 228 238 209 214 204 189 168 149 173 57 240 232 264 210 207 220 204 187 169 161 180 139 151 132 122 111 102 88 74 70 59 50 28 5 360 344 339 328 320 319 315 313 312 313 315 320 328 337 340 333 331 329 325 322 319 314 312 310 310 314 309 301 299
174 138 154 232 174 201 212 208 238 343 325 292 279 251 197 233 221 187 252 267 233 216 181 191 219 217 172 186 153 151 80 55 35 321 276 155 146 172 132 174 180 178 143 144 137 138 136 132 100 92 93 84 75 61 38 14 1 346 330 327 321 317 314 318 315 316 321 325 335 339 340 339 331 324 321 319 316 312 309 310 309 307 310 301 298 299
172 177 206 147 258 147 153 254 303 295 250 264 236 123 356 221 154 153 138 289 287 274 157 148 179 161 154 148 156 150 80 57 315 284 224 256 199 142 161 126 135 133 136 135 111 116 107 98 95 86 97 100 81 62 30 6 353 339 324 315 316 318 315 318 313 324 332 333 334 333 332 328 322 317 315 313 308 305 303 303 298 295 303 297 300 296
55 150 188 184 219 202 190 211 232 238 247 194 256 210 256 192 133 115 65 279 274 230 262 160 167 174 165 161 180 122 78 187 249 247 245 227 256 219 133 147 144 149 146 137 134 122 110 101 102 102 92 90 73 29 17 357 352 336 318 315 314 316 314 315 322 334 331 326 326 323 321 317 314 310 307 303 300 300 299 299 296 295 295 287 290 289
148 167 143 209 219 215 220 231 232 224 252 266 208 227 233 129 92 61 353 281 253 237 208 162 172 177 184 180 153 145 143 191 242 255 214 199 199 210 163 158 151 141 124 108 100 116 119 114 86 68 71 72 51 10 4 354 343 325 313 313 313 315 315 320 330 324 319 316 315 314 310 309 306 302 301 299 297 294 290 293 294 293 293 291 287 288
151 317 200 210 216 226 226 244 287 275 243 179 186 222 237 217 78 223 236 237 233 210 206 177 175 178 172 173 166 168 226 190 206 226 183 188 129 126 111 132 151 149 140 127 124 117 96 84 87 89 87 77 33 7 356 346 338 321 315 312 314 309 313 321 319 314 313 311 307 304 303 301 299 299 297 292 292 292 292 291 290 293 289 289 288 284
349 106 317 252 221 224 224 232 237 264 226 166 257 176 173 90 237 221 236 199 154 200 199 180 176 193 172 180 188 201 221 222 228 222 178 193 173 174 159 141 112 88 89 104 105 93 94 89 85 81 69 61 22 3 352 345 329 311 312 315 307 305 315 313 311 310 308 305 303 302 300 298 296 291 291 295 293 292 290 285 284 286 288 287 287 287
194 144 214 194 208 261 206 246 247 248 248 162 163 55 239 157 230 206 189 230 189 181 187 211 195 208 175 208 208 211 230 246 203 205 206 198 163 161 165 157 147 150 144 126 86 78 100 102 90 81 80 33 15 7 345 345 319 308 309 306 303 312 310 308 308 306 304 304 302 302 299 298 297 296 296 293 291 290 292 291 289 285 284 284 287 285
203 102 239 231 181 172 198 211 208 213 221 185 139 185 226 205 192 171 154 224 222 197 198 199 217 209 199 196 215 230 224 219 239 228 224 204 170 146 154 146 133 117 99 89 100 99 85 91 91 66 37 21 10 357 342 326 312 307 307 299 305 309 307 306 304 304 304 301 300 300 298 298 298 295 292 293 294 293 291 294 292 290 290 288 289 292
201 183 180 192 207 164 201 210 231 199 198 194 179 201 215 224 194 189 175 196 194 230 206 199 214 222 204 198 211 206 212 210 207 195 181 208 183 174 169 166 151 142 135 127 112 102 87 80 41 24 6 356 353 334 319 306 307 303 300 298 311 308 308 307 308 308 303 302 301 302 301 300 297 296 296 295 297 298 297 293 296 296 294 293 293 289
258 215 267 49 242 156 282 207 231 264 242 177 217 208 208 231 240 193 192 213 226 213 185 195 219 220 216 204 200 222 209 208 197 201 198 192 177 172 130 117 104 108 113 110 104 72 75 48 19 2 342 334 322 315 293 295 293 298 293 302 305 305 307 311 310 307 304 303 303 303 304 303 301 298 297 296 293 288 288 291 296 296 297 294 289 289
259 231 166 212 230 102 281 172 185 223 232 218 221 235 248 232 235 208 198 207 224 219 217 220 211 211 210 197 200 204 215 200 200 206 191 176 176 170 154 142 130 126 121 101 99 78 26 17 349 339 332 320 311 297 294 290 283 275 290 299 302 306 308 308 306 304 305 305 306 304 302 305 309 309 303 298 294 289 288 290 289 292 294 292 294 292
289 216 214 235 240 203 233 230 232 228 229 241 221 210 224 236 235 237 225 228 233 232 213 218 213 227 203 201 203 197 209 200 195 210 191 187 181 164 154 146 143 116 104 113 97 73 44 14 336 314 310 305 302 304 292 288 283 284 288 293 300 303 304 304 305 305 306 305 304 304 307 308 306 306 302 300 299 298 296 290 289 290 289 292 291 290
213 85 220 179 190 240 260 249 248 262 280 265 242 220 226 221 221 238 240 242 249 251 243 234 209 207 190 206 188 188 199 212 203 198 187 175 164 160 155 139 125 123 115 67 56 51 6 323 307 286 291 294 299 298 293 287 291 295 297 299 301 301 304 304 305 302 300 300 302 303 306 305 305 302 301 300 296 287 287 292 292 286 281 277 270 274
173 245 206 81 211 200 208 233 209 220 251 256 247 230 225 226 224 237 246 247 239 238 230 217 227 237 210 194 182 184 196 207 198 167 181 178 174 153 138 130 125 119 111 105 85 17 312 282 264 286 293 295 299 297 300 299 299 297 293 297 297 303 306 307 307 305 304 305 305 306 308 309 305 301 299 298 300 300 294 285 295 295 295 293 296 297
216 230 187 198 214 237 238 242 205 213 243 241 242 239 220 220 211 224 237 240 238 227 212 200 196 204 214 223 194 179 194 183 188 156 155 156 156 143 133 132 133 139 201 68 344 304 257 262 272 281 290 288 299 304 303 301 299 298 297 297 302 305 303 305 306 304 304 309 307 310 312 309 305 300 298 297 300 301 302 306 303 300 299 299 300 301